Time,TemperatureF,DewpointF,PressureIn,WindDirection,WindDirectionDegrees,WindSpeedMPH,WindSpeedGustMPH,Humidity,HourlyPrecipIn,Conditions,Clouds,dailyrainin,SolarRadiationWatts/m^2,SoftwareType,DateUTC
2013-01-19 00:03:00,17.8,8.7,30.31,SW,232,0.0,9.0,67,0.00,,CLR,0.00,0.00,VWS V14.01,2013-01-19 05:03:00,
2013-01-19 00:05:00,18.0,8.9,30.31,SSE,150,0.0,9.0,67,0.00,,CLR,0.00,0.00,VWS V14.01,2013-01-19 05:05:00,
2013-01-19 00:06:00,18.1,8.7,30.31,SE,130,0.0,2.0,66,0.00,,CLR,0.00,0.00,VWS V14.01,2013-01-19 05:06:00,
2013-01-19 00:10:00,18.5,9.1,30.31,SSW,194,6.0,7.0,66,0.00,,CLR,0.00,0.00,VWS V14.01,2013-01-19 05:10:00,
2013-01-19 00:11:00,18.6,8.8,30.31,SSE,165,4.0,7.0,65,0.00,,CLR,0.00,0.00,VWS V14.01,2013-01-19 05:11:00,
2013-01-19 00:15:00,19.0,9.2,30.31,SSW,192,5.0,11.0,65,0.00,,OVC075,0.00,0.00,VWS V14.01,2013-01-19 05:15:00,
2013-01-19 00:16:00,19.1,9.3,30.31,SSW,195,1.0,11.0,65,0.00,,OVC075,0.00,0.00,VWS V14.01,2013-01-19 05:16:00,
2013-01-19 00:20:00,19.5,9.3,30.32,SSE,155,5.0,11.0,64,0.00,,OVC075,0.00,0.00,VWS V14.01,2013-01-19 05:20:00,
2013-01-19 00:23:00,19.7,9.5,30.31,SW,236,3.0,11.0,64,0.00,,OVC075,0.00,0.00,VWS V14.01,2013-01-19 05:23:00,
2013-01-19 00:25:00,19.8,9.6,30.30,South,178,4.0,11.0,64,0.00,,OVC075,0.00,0.00,VWS V14.01,2013-01-19 05:25:00,
2013-01-19 00:28:00,20.2,9.6,30.30,South,176,7.0,11.0,63,0.00,,OVC075,0.00,0.00,VWS V14.01,2013-01-19 05:28:00,
2013-01-19 00:30:00,20.3,9.7,30.30,SSE,152,0.0,11.0,63,0.00,,OVC075,0.00,0.00,VWS V14.01,2013-01-19 05:30:00,
2013-01-19 00:34:00,20.6,10.0,30.30,South,171,7.0,11.0,63,0.00,,OVC075,0.00,0.00,VWS V14.01,2013-01-19 05:34:00,
2013-01-19 00:35:00,20.7,10.1,30.30,South,173,6.0,11.0,63,0.00,,OVC075,0.00,0.00,VWS V14.01,2013-01-19 05:35:00,
2013-01-19 00:40:00,21.0,10.4,30.29,SSE,165,1.0,11.0,63,0.00,,OVC075,0.00,0.00,VWS V14.01,2013-01-19 05:40:00,
2013-01-19 00:42:00,21.0,10.4,30.29,SSE,165,8.0,11.0,63,0.00,,OVC075,0.00,0.00,VWS V14.01,2013-01-19 05:42:00,
2013-01-19 00:44:00,21.1,10.5,30.29,SSW,202,1.0,11.0,63,0.00,,OVC075,0.00,0.00,VWS V14.01,2013-01-19 05:44:00,
2013-01-19 00:47:00,21.2,10.6,30.29,SSE,166,2.0,11.0,63,0.00,,OVC075,0.00,0.00,VWS V14.01,2013-01-19 05:47:00,
2013-01-19 00:49:00,21.3,10.7,30.29,SSE,156,7.0,11.0,63,0.00,,OVC075,0.00,0.00,VWS V14.01,2013-01-19 05:49:00,
2013-01-19 00:52:00,21.4,10.8,30.29,SSW,201,8.0,11.0,63,0.00,,OVC075,0.00,0.00,VWS V14.01,2013-01-19 05:52:00,
2013-01-19 00:54:00,21.5,10.9,30.29,WSW,244,1.0,11.0,63,0.00,,OVC075,0.00,0.00,VWS V14.01,2013-01-19 05:54:00,
2013-01-19 00:57:00,21.6,11.0,30.30,SSW,206,4.0,11.0,63,0.00,,OVC075,0.00,0.00,VWS V14.01,2013-01-19 05:57:00,
2013-01-19 00:59:00,21.6,11.0,30.30,SW,236,4.0,11.0,63,0.00,,OVC075,0.00,0.00,VWS V14.01,2013-01-19 05:59:00,
2013-01-19 01:02:00,21.7,11.1,30.29,South,184,1.0,11.0,63,0.00,,OVC075,0.00,0.00,VWS V14.01,2013-01-19 06:02:00,
2013-01-19 01:04:00,21.8,11.2,30.29,SSW,206,3.0,12.0,63,0.00,,OVC075,0.00,0.00,VWS V14.01,2013-01-19 06:04:00,
2013-01-19 01:05:00,21.8,11.2,30.29,South,169,3.0,12.0,63,0.00,,OVC075,0.00,0.00,VWS V14.01,2013-01-19 06:05:00,
2013-01-19 01:09:00,22.1,11.4,30.29,SSE,148,0.0,8.0,63,0.00,,OVC075,0.00,0.00,VWS V14.01,2013-01-19 06:09:00,
2013-01-19 01:13:00,22.2,11.5,30.29,South,171,2.0,9.0,63,0.00,,OVC075,0.00,0.00,VWS V14.01,2013-01-19 06:13:00,
2013-01-19 01:14:00,22.3,11.6,30.28,SSW,198,5.0,11.0,63,0.00,,OVC075,0.00,0.00,VWS V14.01,2013-01-19 06:14:00,
2013-01-19 01:16:00,22.4,11.7,30.28,SSW,196,5.0,11.0,63,0.00,,OVC075,0.00,0.00,VWS V14.01,2013-01-19 06:16:00,
2013-01-19 01:18:00,22.4,11.7,30.28,SE,144,3.0,11.0,63,0.00,,OVC075,0.00,0.00,VWS V14.01,2013-01-19 06:18:00,
2013-01-19 01:21:00,22.6,11.6,30.29,South,180,0.0,13.0,62,0.00,,OVC075,0.00,0.00,VWS V14.01,2013-01-19 06:21:00,
2013-01-19 01:23:00,22.6,11.9,30.28,West,280,0.0,13.0,63,0.00,,OVC075,0.00,0.00,VWS V14.01,2013-01-19 06:23:00,
2013-01-19 01:25:00,22.6,11.9,30.29,SW,218,0.0,13.0,63,0.00,,OVC075,0.00,0.00,VWS V14.01,2013-01-19 06:25:00,
2013-01-19 01:26:00,22.7,11.6,30.28,South,188,0.0,13.0,62,0.00,,OVC075,0.00,0.00,VWS V14.01,2013-01-19 06:26:00,
2013-01-19 01:28:00,22.8,12.1,30.28,SSE,167,4.0,13.0,63,0.00,,OVC075,0.00,0.00,VWS V14.01,2013-01-19 06:28:00,
2013-01-19 01:30:00,22.8,11.8,30.28,SSE,163,4.0,13.0,62,0.00,,OVC075,0.00,0.00,VWS V14.01,2013-01-19 06:30:00,
2013-01-19 01:33:00,22.9,12.2,30.28,SSW,192,9.0,13.0,63,0.00,,OVC075,0.00,0.00,VWS V14.01,2013-01-19 06:33:00,
2013-01-19 01:35:00,23.0,11.9,30.28,SSW,194,0.0,13.0,62,0.00,,OVC075,0.00,0.00,VWS V14.01,2013-01-19 06:35:00,
2013-01-19 01:39:00,23.2,12.5,30.28,South,180,6.0,13.0,63,0.00,,OVC075,0.00,0.00,VWS V14.01,2013-01-19 06:39:00,
2013-01-19 01:42:00,23.3,12.2,30.28,South,184,0.0,13.0,62,0.00,,OVC075,0.00,0.00,VWS V14.01,2013-01-19 06:42:00,
2013-01-19 01:44:00,23.4,12.3,30.28,SSW,207,4.0,13.0,62,0.00,,OVC075,0.00,0.00,VWS V14.01,2013-01-19 06:44:00,
2013-01-19 01:47:00,23.4,12.7,30.27,SSW,199,7.0,13.0,63,0.00,,OVC075,0.00,0.00,VWS V14.01,2013-01-19 06:47:00,
2013-01-19 01:49:00,23.5,12.4,30.27,SSW,202,2.0,15.0,62,0.00,,OVC075,0.00,0.00,VWS V14.01,2013-01-19 06:49:00,
2013-01-19 01:50:00,23.6,12.5,30.28,SW,217,6.0,15.0,62,0.00,,OVC075,0.00,0.00,VWS V14.01,2013-01-19 06:50:00,
2013-01-19 01:52:00,23.7,12.6,30.27,SSW,200,5.0,18.0,62,0.00,,OVC075,0.00,0.00,VWS V14.01,2013-01-19 06:52:00,
2013-01-19 01:54:00,23.8,12.3,30.27,SW,221,0.0,18.0,61,0.00,,OVC075,0.00,0.00,VWS V14.01,2013-01-19 06:54:00,
2013-01-19 01:57:00,23.9,12.8,30.26,SSE,167,7.0,18.0,62,0.00,,OVC075,0.00,0.00,VWS V14.01,2013-01-19 06:57:00,
2013-01-19 01:59:00,23.9,12.4,30.26,SSE,162,7.0,18.0,61,0.00,,OVC075,0.00,0.00,VWS V14.01,2013-01-19 06:59:00,
2013-01-19 02:01:00,23.9,12.4,30.26,SW,217,5.0,18.0,61,0.00,,OVC075,0.00,0.00,VWS V14.01,2013-01-19 07:01:00,
2013-01-19 02:05:00,24.0,12.9,30.26,SSW,200,2.0,18.0,62,0.00,,OVC075,0.00,0.00,VWS V14.01,2013-01-19 07:05:00,
2013-01-19 02:06:00,24.0,12.9,30.26,SSW,212,0.0,2.0,62,0.00,,OVC075,0.00,0.00,VWS V14.01,2013-01-19 07:06:00,
2013-01-19 02:07:00,24.0,12.9,30.26,South,181,9.0,9.0,62,0.00,,OVC075,0.00,0.00,VWS V14.01,2013-01-19 07:07:00,
2013-01-19 02:09:00,24.1,13.0,30.26,SSE,167,2.0,9.0,62,0.00,,OVC075,0.00,0.00,VWS V14.01,2013-01-19 07:09:00,
2013-01-19 02:11:00,24.1,13.0,30.27,SE,124,0.0,9.0,62,0.00,,OVC075,0.00,0.00,VWS V14.01,2013-01-19 07:11:00,
2013-01-19 02:13:00,24.1,13.0,30.26,SSW,203,5.0,9.0,62,0.00,,OVC075,0.00,0.00,VWS V14.01,2013-01-19 07:13:00,
2013-01-19 02:14:00,24.1,13.0,30.26,SSE,151,4.0,9.0,62,0.00,,OVC075,0.00,0.00,VWS V14.01,2013-01-19 07:14:00,
2013-01-19 02:18:00,24.2,13.1,30.26,SE,141,6.0,14.0,62,0.00,,OVC075,0.00,0.00,VWS V14.01,2013-01-19 07:18:00,
2013-01-19 02:19:00,24.3,13.2,30.26,SW,218,2.0,14.0,62,0.00,,OVC075,0.00,0.00,VWS V14.01,2013-01-19 07:19:00,
2013-01-19 02:21:00,24.3,13.2,30.25,SW,225,0.0,14.0,62,0.00,,OVC075,0.00,0.00,VWS V14.01,2013-01-19 07:21:00,
2013-01-19 02:23:00,24.3,13.2,30.26,SSW,211,2.0,14.0,62,0.00,,OVC075,0.00,0.00,VWS V14.01,2013-01-19 07:23:00,
2013-01-19 02:26:00,24.4,13.3,30.26,South,182,7.0,14.0,62,0.00,,OVC075,0.00,0.00,VWS V14.01,2013-01-19 07:26:00,
2013-01-19 02:28:00,24.4,13.3,30.25,South,182,5.0,14.0,62,0.00,,OVC075,0.00,0.00,VWS V14.01,2013-01-19 07:28:00,
2013-01-19 02:30:00,24.4,13.3,30.25,SE,132,8.0,14.0,62,0.00,,OVC075,0.00,0.00,VWS V14.01,2013-01-19 07:30:00,
2013-01-19 02:35:00,24.5,13.4,30.26,South,181,2.0,14.0,62,0.00,,OVC075,0.00,0.00,VWS V14.01,2013-01-19 07:35:00,
2013-01-19 02:37:00,24.5,13.0,30.26,West,265,2.0,14.0,61,0.00,,OVC075,0.00,0.00,VWS V14.01,2013-01-19 07:37:00,
2013-01-19 02:38:00,24.5,13.4,30.26,South,171,1.0,14.0,62,0.00,,OVC075,0.00,0.00,VWS V14.01,2013-01-19 07:38:00,
2013-01-19 02:40:00,24.6,13.4,30.26,ESE,105,6.0,14.0,62,0.00,,OVC075,0.00,0.00,VWS V14.01,2013-01-19 07:40:00,
2013-01-19 02:45:00,24.8,13.3,30.26,South,175,5.0,14.0,61,0.00,,OVC075,0.00,0.00,VWS V14.01,2013-01-19 07:45:00,
2013-01-19 02:47:00,24.8,13.3,30.26,SSW,196,5.0,14.0,61,0.00,,OVC075,0.00,0.00,VWS V14.01,2013-01-19 07:47:00,
2013-01-19 02:52:00,24.9,13.7,30.25,South,169,2.0,14.0,62,0.00,,OVC075,0.00,0.00,VWS V14.01,2013-01-19 07:52:00,
2013-01-19 02:57:00,25.0,13.8,30.26,South,179,4.0,14.0,62,0.00,,OVC075,0.00,0.00,VWS V14.01,2013-01-19 07:57:00,
2013-01-19 02:59:00,25.1,13.9,30.25,South,187,8.0,14.0,62,0.00,,OVC075,0.00,0.00,VWS V14.01,2013-01-19 07:59:00,
2013-01-19 03:02:00,25.2,13.6,30.26,SSW,203,8.0,14.0,61,0.00,,OVC075,0.00,0.00,VWS V14.01,2013-01-19 08:02:00,
2013-01-19 03:04:00,25.2,13.6,30.25,SSW,211,5.0,14.0,61,0.00,,OVC075,0.00,0.00,VWS V14.01,2013-01-19 08:04:00,
2013-01-19 03:05:00,25.2,14.0,30.25,SE,132,4.0,14.0,62,0.00,,OVC075,0.00,0.00,VWS V14.01,2013-01-19 08:05:00,
2013-01-19 03:07:00,25.3,14.1,30.25,SSW,194,7.0,13.0,62,0.00,,OVC075,0.00,0.00,VWS V14.01,2013-01-19 08:07:00,
2013-01-19 03:12:00,25.3,14.1,30.24,SSE,165,4.0,15.0,62,0.00,,OVC075,0.00,0.00,VWS V14.01,2013-01-19 08:12:00,
2013-01-19 03:14:00,25.4,14.2,30.24,SSE,167,2.0,15.0,62,0.00,,OVC075,0.00,0.00,VWS V14.01,2013-01-19 08:14:00,
2013-01-19 03:16:00,25.4,14.2,30.24,South,188,7.0,19.0,62,0.00,,OVC075,0.00,0.00,VWS V14.01,2013-01-19 08:16:00,
2013-01-19 03:17:00,25.4,14.6,30.24,SSE,163,2.0,19.0,63,0.00,,OVC075,0.00,0.00,VWS V14.01,2013-01-19 08:17:00,
2013-01-19 03:21:00,25.4,14.2,30.24,South,176,7.0,19.0,62,0.00,,OVC075,0.00,0.00,VWS V14.01,2013-01-19 08:21:00,
2013-01-19 03:24:00,25.4,14.2,30.24,SSW,205,1.0,19.0,62,0.00,,OVC075,0.00,0.00,VWS V14.01,2013-01-19 08:24:00,
2013-01-19 03:26:00,25.5,14.7,30.24,South,173,1.0,19.0,63,0.00,,OVC075,0.00,0.00,VWS V14.01,2013-01-19 08:26:00,
2013-01-19 03:29:00,25.5,14.7,30.24,West,262,4.0,19.0,63,0.00,,OVC075,0.00,0.00,VWS V14.01,2013-01-19 08:29:00,
2013-01-19 03:31:00,25.5,14.7,30.24,SSW,196,8.0,19.0,63,0.00,,OVC075,0.00,0.00,VWS V14.01,2013-01-19 08:31:00,
2013-01-19 03:34:00,25.4,14.9,30.24,SSE,163,3.0,19.0,64,0.00,,OVC075,0.00,0.00,VWS V14.01,2013-01-19 08:34:00,
2013-01-19 03:36:00,25.4,14.9,30.24,SW,219,8.0,19.0,64,0.00,,OVC075,0.00,0.00,VWS V14.01,2013-01-19 08:36:00,
2013-01-19 03:41:00,25.4,14.9,30.23,SSW,202,6.0,19.0,64,0.00,,OVC075,0.00,0.00,VWS V14.01,2013-01-19 08:41:00,
2013-01-19 03:45:00,25.4,14.9,30.23,SSW,201,7.0,19.0,64,0.00,,OVC075,0.00,0.00,VWS V14.01,2013-01-19 08:45:00,
2013-01-19 03:46:00,25.4,14.9,30.23,SSW,205,10.0,19.0,64,0.00,,OVC075,0.00,0.00,VWS V14.01,2013-01-19 08:46:00,
2013-01-19 03:50:00,25.4,14.9,30.23,SW,224,7.0,19.0,64,0.00,,OVC075,0.00,0.00,VWS V14.01,2013-01-19 08:50:00,
2013-01-19 03:51:00,25.4,14.9,30.22,South,184,2.0,19.0,64,0.00,,OVC075,0.00,0.00,VWS V14.01,2013-01-19 08:51:00,
2013-01-19 03:55:00,25.3,14.8,30.22,South,171,10.0,19.0,64,0.00,,OVC075,0.00,0.00,VWS V14.01,2013-01-19 08:55:00,
2013-01-19 03:57:00,25.3,14.8,30.22,SSW,192,1.0,19.0,64,0.00,,OVC075,0.00,0.00,VWS V14.01,2013-01-19 08:57:00,
2013-01-19 04:02:00,25.3,14.8,30.22,South,187,7.0,19.0,64,0.00,,OVC075,0.00,0.00,VWS V14.01,2013-01-19 09:02:00,
2013-01-19 04:04:00,25.3,15.2,30.22,South,179,2.0,19.0,65,0.00,,OVC075,0.00,0.00,VWS V14.01,2013-01-19 09:04:00,
2013-01-19 04:07:00,25.4,14.9,30.22,SSW,203,10.0,10.0,64,0.00,,OVC075,0.00,0.00,VWS V14.01,2013-01-19 09:07:00,
2013-01-19 04:09:00,25.4,14.9,30.21,SSE,168,8.0,12.0,64,0.00,,OVC075,0.00,0.00,VWS V14.01,2013-01-19 09:09:00,
2013-01-19 04:12:00,25.4,15.3,30.21,SSW,197,1.0,12.0,65,0.00,,BKN090,0.00,0.00,VWS V14.01,2013-01-19 09:12:00,
2013-01-19 04:14:00,25.4,15.3,30.21,SSE,155,4.0,12.0,65,0.00,,BKN090,0.00,0.00,VWS V14.01,2013-01-19 09:14:00,
2013-01-19 04:17:00,25.4,15.3,30.21,SSW,199,6.0,16.0,65,0.00,,BKN090,0.00,0.00,VWS V14.01,2013-01-19 09:17:00,
2013-01-19 04:19:00,25.4,15.3,30.21,South,181,9.0,16.0,65,0.00,,BKN090,0.00,0.00,VWS V14.01,2013-01-19 09:19:00,
2013-01-19 04:22:00,25.5,15.4,30.20,SE,144,6.0,16.0,65,0.00,,BKN090,0.00,0.00,VWS V14.01,2013-01-19 09:22:00,
2013-01-19 04:24:00,25.5,15.4,30.21,South,175,6.0,16.0,65,0.00,,BKN090,0.00,0.00,VWS V14.01,2013-01-19 09:24:00,
2013-01-19 04:26:00,25.5,15.4,30.21,SSE,167,5.0,16.0,65,0.00,,BKN090,0.00,0.00,VWS V14.01,2013-01-19 09:26:00,
2013-01-19 04:29:00,25.5,15.4,30.20,SSW,201,6.0,19.0,65,0.00,,BKN090,0.00,0.00,VWS V14.01,2013-01-19 09:29:00,
2013-01-19 04:31:00,25.5,15.4,30.20,SSE,166,4.0,19.0,65,0.00,,BKN090,0.00,0.00,VWS V14.01,2013-01-19 09:31:00,
2013-01-19 04:32:00,25.5,15.4,30.20,SSW,209,5.0,19.0,65,0.00,,BKN090,0.00,0.00,VWS V14.01,2013-01-19 09:32:00,
2013-01-19 04:36:00,25.6,15.5,30.20,South,184,12.0,19.0,65,0.00,,BKN090,0.00,0.00,VWS V14.01,2013-01-19 09:36:00,
2013-01-19 04:38:00,25.6,15.5,30.20,South,188,6.0,19.0,65,0.00,,BKN090,0.00,0.00,VWS V14.01,2013-01-19 09:38:00,
2013-01-19 04:39:00,25.6,15.5,30.20,South,172,1.0,19.0,65,0.00,,BKN090,0.00,0.00,VWS V14.01,2013-01-19 09:39:00,
2013-01-19 04:41:00,25.6,15.5,30.20,South,186,7.0,19.0,65,0.00,,BKN090,0.00,0.00,VWS V14.01,2013-01-19 09:41:00,
2013-01-19 04:43:00,25.6,15.5,30.19,SSW,203,5.0,19.0,65,0.00,,BKN090,0.00,0.00,VWS V14.01,2013-01-19 09:43:00,
2013-01-19 04:46:00,25.7,15.6,30.20,SW,215,4.0,19.0,65,0.00,,BKN090,0.00,0.00,VWS V14.01,2013-01-19 09:46:00,
2013-01-19 04:48:00,25.7,15.6,30.19,SSW,196,6.0,19.0,65,0.00,,BKN090,0.00,0.00,VWS V14.01,2013-01-19 09:48:00,
2013-01-19 04:53:00,25.8,15.7,30.20,South,177,7.0,19.0,65,0.00,,BKN090,0.00,0.00,VWS V14.01,2013-01-19 09:53:00,
2013-01-19 04:58:00,26.0,15.9,30.19,South,175,8.0,21.0,65,0.00,,BKN090,0.00,0.00,VWS V14.01,2013-01-19 09:58:00,
2013-01-19 05:00:00,26.0,15.9,30.19,SW,215,0.0,21.0,65,0.00,,BKN090,0.00,0.00,VWS V14.01,2013-01-19 10:00:00,
2013-01-19 05:01:00,26.0,15.9,30.19,SSE,151,7.0,21.0,65,0.00,,BKN090,0.00,0.00,VWS V14.01,2013-01-19 10:01:00,
2013-01-19 05:07:00,26.1,16.0,30.19,SSW,192,0.0,7.0,65,0.00,,BKN090,0.00,0.00,VWS V14.01,2013-01-19 10:07:00,
2013-01-19 05:08:00,26.2,16.1,30.19,South,176,12.0,12.0,65,0.00,,BKN090,0.00,0.00,VWS V14.01,2013-01-19 10:08:00,
2013-01-19 05:10:00,26.2,15.7,30.19,South,178,5.0,12.0,64,0.00,,BKN090,0.00,0.00,VWS V14.01,2013-01-19 10:10:00,
2013-01-19 05:14:00,26.3,15.8,30.19,WSW,244,0.0,12.0,64,0.00,,BKN090,0.00,0.00,VWS V14.01,2013-01-19 10:14:00,
2013-01-19 05:15:00,26.3,15.8,30.18,WSW,242,4.0,14.0,64,0.00,,BKN090,0.00,0.00,VWS V14.01,2013-01-19 10:15:00,
2013-01-19 05:17:00,26.3,16.1,30.18,South,171,8.0,14.0,65,0.00,,BKN090,0.00,0.00,VWS V14.01,2013-01-19 10:17:00,
2013-01-19 05:20:00,26.4,16.2,30.18,South,191,11.0,14.0,65,0.00,,BKN090,0.00,0.00,VWS V14.01,2013-01-19 10:20:00,
2013-01-19 05:24:00,26.5,16.3,30.18,SSW,194,6.0,14.0,65,0.00,,BKN090,0.00,0.00,VWS V14.01,2013-01-19 10:24:00,
2013-01-19 05:29:00,26.5,16.3,30.18,SSE,168,4.0,14.0,65,0.00,,BKN090,0.00,0.00,VWS V14.01,2013-01-19 10:29:00,
2013-01-19 05:31:00,26.6,16.1,30.18,SSE,168,1.0,14.0,64,0.00,,BKN090,0.00,0.00,VWS V14.01,2013-01-19 10:31:00,
2013-01-19 05:34:00,26.6,16.1,30.18,SE,136,5.0,16.0,64,0.00,,BKN090,0.00,0.00,VWS V14.01,2013-01-19 10:34:00,
2013-01-19 05:36:00,26.7,16.2,30.18,SW,219,6.0,16.0,64,0.00,,BKN090,0.00,0.00,VWS V14.01,2013-01-19 10:36:00,
2013-01-19 05:37:00,26.7,16.2,30.17,SSW,202,6.0,19.0,64,0.00,,BKN090,0.00,0.00,VWS V14.01,2013-01-19 10:37:00,
2013-01-19 05:39:00,26.8,16.6,30.18,SSW,192,6.0,19.0,65,0.00,,BKN090,0.00,0.00,VWS V14.01,2013-01-19 10:39:00,
2013-01-19 05:44:00,26.8,16.6,30.18,South,178,11.0,19.0,65,0.00,,BKN090,0.00,0.00,VWS V14.01,2013-01-19 10:44:00,
2013-01-19 05:46:00,26.9,16.4,30.19,South,175,2.0,19.0,64,0.00,,BKN090,0.00,0.00,VWS V14.01,2013-01-19 10:46:00,
2013-01-19 05:48:00,26.8,16.3,30.19,South,178,8.0,19.0,64,0.00,,BKN090,0.00,0.00,VWS V14.01,2013-01-19 10:48:00,
2013-01-19 05:49:00,26.9,16.4,30.19,NW,306,1.0,19.0,64,0.00,,BKN090,0.00,0.00,VWS V14.01,2013-01-19 10:49:00,
2013-01-19 05:51:00,26.9,16.4,30.18,SW,234,8.0,19.0,64,0.00,,BKN090,0.00,0.00,VWS V14.01,2013-01-19 10:51:00,
2013-01-19 05:54:00,27.0,16.8,30.18,South,180,15.0,19.0,65,0.00,,BKN090,0.00,0.00,VWS V14.01,2013-01-19 10:54:00,
2013-01-19 05:56:00,27.0,16.8,30.18,SSW,203,8.0,19.0,65,0.00,,BKN090,0.00,0.00,VWS V14.01,2013-01-19 10:56:00,
2013-01-19 05:59:00,27.0,16.5,30.18,SW,217,7.0,19.0,64,0.00,,BKN090,0.00,0.00,VWS V14.01,2013-01-19 10:59:00,
2013-01-19 06:03:00,27.0,16.8,30.18,SSW,193,10.0,19.0,65,0.00,,BKN090,0.00,0.00,VWS V14.01,2013-01-19 11:03:00,
2013-01-19 06:05:00,27.0,16.8,30.18,SSW,205,7.0,19.0,65,0.00,,BKN090,0.00,0.00,VWS V14.01,2013-01-19 11:05:00,
2013-01-19 06:06:00,26.9,16.7,30.18,SSW,197,8.0,8.0,65,0.00,,BKN090,0.00,0.00,VWS V14.01,2013-01-19 11:06:00,
2013-01-19 06:10:00,26.9,16.7,30.18,South,189,10.0,15.0,65,0.00,,BKN090,0.00,0.00,VWS V14.01,2013-01-19 11:10:00,
2013-01-19 06:11:00,26.9,17.1,30.18,SSE,159,9.0,15.0,66,0.00,,FEW120,0.00,0.00,VWS V14.01,2013-01-19 11:11:00,
2013-01-19 06:13:00,27.0,17.2,30.18,SW,221,8.0,15.0,66,0.00,,FEW120,0.00,0.00,VWS V14.01,2013-01-19 11:13:00,
2013-01-19 07:47:00,28.4,19.2,30.16,SSE,157,6.0,20.0,68,0.00,,FEW120,0.00,40.00,VWS V14.01,2013-01-19 12:47:00,
2013-01-19 07:48:00,28.5,19.3,30.16,SW,236,3.0,20.0,68,0.00,,FEW120,0.00,44.00,VWS V14.01,2013-01-19 12:48:00,
2013-01-19 07:50:00,28.5,19.3,30.16,SSW,198,11.0,20.0,68,0.00,,FEW120,0.00,46.00,VWS V14.01,2013-01-19 12:50:00,
2013-01-19 07:55:00,28.7,19.5,30.16,SSW,212,7.0,20.0,68,0.00,,FEW120,0.00,51.00,VWS V14.01,2013-01-19 12:55:00,
2013-01-19 07:57:00,28.7,19.8,30.16,SSE,165,12.0,20.0,69,0.00,,FEW120,0.00,49.00,VWS V14.01,2013-01-19 12:57:00,
2013-01-19 08:00:00,28.8,19.6,30.16,South,189,13.0,20.0,68,0.00,,FEW120,0.00,56.00,VWS V14.01,2013-01-19 13:00:00,
2013-01-19 08:02:00,28.8,19.9,30.16,SSE,158,1.0,20.0,69,0.00,,FEW120,0.00,63.00,VWS V14.01,2013-01-19 13:02:00,
2013-01-19 08:04:00,28.9,19.7,30.16,SSW,201,6.0,20.0,68,0.00,,FEW120,0.00,69.00,VWS V14.01,2013-01-19 13:04:00,
2013-01-19 08:07:00,29.0,19.8,30.16,SSE,165,5.0,10.0,68,0.00,,FEW120,0.00,77.00,VWS V14.01,2013-01-19 13:07:00,
2013-01-19 08:11:00,29.1,20.2,30.16,SSW,207,4.0,15.0,69,0.00,,FEW120,0.00,79.00,VWS V14.01,2013-01-19 13:11:00,
2013-01-19 08:14:00,29.2,20.3,30.16,SSE,155,6.0,15.0,69,0.00,,OVC110,0.00,81.00,VWS V14.01,2013-01-19 13:14:00,
2013-01-19 08:16:00,29.2,20.3,30.16,South,182,6.0,15.0,69,0.00,,OVC110,0.00,83.00,VWS V14.01,2013-01-19 13:16:00,
2013-01-19 08:19:00,29.3,20.4,30.16,SSE,155,7.0,15.0,69,0.00,,OVC110,0.00,86.00,VWS V14.01,2013-01-19 13:19:00,
2013-01-19 08:21:00,29.4,20.5,30.16,SSE,167,9.0,15.0,69,0.00,,OVC110,0.00,88.00,VWS V14.01,2013-01-19 13:21:00,
2013-01-19 08:24:00,29.6,20.7,30.16,South,180,13.0,15.0,69,0.00,,OVC110,0.00,84.00,VWS V14.01,2013-01-19 13:24:00,
2013-01-19 08:26:00,29.6,20.7,30.15,SSE,165,7.0,18.0,69,0.00,,OVC110,0.00,84.00,VWS V14.01,2013-01-19 13:26:00,
2013-01-19 08:28:00,29.6,20.7,30.16,SSE,164,1.0,18.0,69,0.00,,OVC110,0.00,83.00,VWS V14.01,2013-01-19 13:28:00,
2013-01-19 08:30:00,29.7,20.8,30.16,WSW,242,6.0,18.0,69,0.00,,OVC110,0.00,79.00,VWS V14.01,2013-01-19 13:30:00,
2013-01-19 08:35:00,29.9,21.0,30.16,SW,221,5.0,18.0,69,0.00,,OVC110,0.00,81.00,VWS V14.01,2013-01-19 13:35:00,
2013-01-19 08:36:00,29.9,21.0,30.15,South,188,8.0,18.0,69,0.00,,OVC110,0.00,83.00,VWS V14.01,2013-01-19 13:36:00,
2013-01-19 08:38:00,29.9,21.3,30.16,SSE,155,11.0,18.0,70,0.00,,OVC110,0.00,88.00,VWS V14.01,2013-01-19 13:38:00,
2013-01-19 08:41:00,30.1,21.5,30.16,SW,216,6.0,18.0,70,0.00,,OVC110,0.00,95.00,VWS V14.01,2013-01-19 13:41:00,
2013-01-19 08:43:00,30.1,21.5,30.16,West,260,5.0,18.0,70,0.00,,OVC110,0.00,102.00,VWS V14.01,2013-01-19 13:43:00,
2013-01-19 08:45:00,30.2,21.3,30.16,SW,232,6.0,18.0,69,0.00,,OVC110,0.00,105.00,VWS V14.01,2013-01-19 13:45:00,
2013-01-19 08:48:00,30.2,21.6,30.16,South,173,3.0,18.0,70,0.00,,OVC110,0.00,98.00,VWS V14.01,2013-01-19 13:48:00,
2013-01-19 08:50:00,30.3,21.7,30.16,WSW,246,5.0,18.0,70,0.00,,OVC110,0.00,95.00,VWS V14.01,2013-01-19 13:50:00,
2013-01-19 08:52:00,30.3,21.7,30.16,SSW,213,9.0,18.0,70,0.00,,OVC110,0.00,91.00,VWS V14.01,2013-01-19 13:52:00,
2013-01-19 08:53:00,30.4,21.5,30.16,South,180,6.0,18.0,69,0.00,,OVC110,0.00,91.00,VWS V14.01,2013-01-19 13:53:00,
2013-01-19 08:55:00,30.4,21.5,30.16,SW,219,10.0,18.0,69,0.00,,OVC110,0.00,91.00,VWS V14.01,2013-01-19 13:55:00,
2013-01-19 08:57:00,30.4,21.8,30.16,SSE,153,5.0,18.0,70,0.00,,OVC110,0.00,95.00,VWS V14.01,2013-01-19 13:57:00,
2013-01-19 08:59:00,30.5,21.9,30.16,South,189,4.0,18.0,70,0.00,,OVC110,0.00,104.00,VWS V14.01,2013-01-19 13:59:00,
2013-01-19 09:00:00,30.5,21.6,30.16,SSW,204,6.0,18.0,69,0.00,,OVC110,0.00,111.00,VWS V14.01,2013-01-19 14:00:00,
2013-01-19 09:02:00,30.6,22.0,30.16,SW,217,2.0,18.0,70,0.00,,OVC110,0.00,118.00,VWS V14.01,2013-01-19 14:02:00,
2013-01-19 09:04:00,30.6,22.0,30.16,SE,137,8.0,18.0,70,0.00,,OVC110,0.00,125.00,VWS V14.01,2013-01-19 14:04:00,
2013-01-19 09:07:00,30.7,22.1,30.15,SW,229,10.0,10.0,70,0.00,,OVC110,0.00,127.00,VWS V14.01,2013-01-19 14:07:00,
2013-01-19 09:10:00,30.8,22.2,30.15,SSW,201,6.0,10.0,70,0.00,,OVC110,0.00,127.00,VWS V14.01,2013-01-19 14:10:00,
2013-01-19 09:12:00,30.8,22.2,30.15,SSW,210,2.0,10.0,70,0.00,,OVC110,0.00,128.00,VWS V14.01,2013-01-19 14:12:00,
2013-01-19 09:16:00,30.9,22.3,30.15,SW,222,1.0,10.0,70,0.00,,OVC110,0.00,128.00,VWS V14.01,2013-01-19 14:16:00,
2013-01-19 09:21:00,31.0,22.4,30.15,South,178,6.0,12.0,70,0.00,,OVC110,0.00,130.00,VWS V14.01,2013-01-19 14:21:00,
2013-01-19 09:22:00,31.1,22.5,30.15,SSW,197,5.0,12.0,70,0.00,,OVC110,0.00,132.00,VWS V14.01,2013-01-19 14:22:00,
2013-01-19 09:26:00,31.2,22.6,30.15,SSW,193,6.0,16.0,70,0.00,,OVC110,0.00,121.00,VWS V14.01,2013-01-19 14:26:00,
2013-01-19 09:28:00,31.2,22.6,30.15,South,182,5.0,18.0,70,0.00,,OVC110,0.00,120.00,VWS V14.01,2013-01-19 14:28:00,
2013-01-19 09:33:00,31.2,22.6,30.15,SSW,200,7.0,18.0,70,0.00,,OVC110,0.00,120.00,VWS V14.01,2013-01-19 14:33:00,
2013-01-19 09:35:00,31.3,22.7,30.14,SSE,163,12.0,18.0,70,0.00,,OVC110,0.00,125.00,VWS V14.01,2013-01-19 14:35:00,
2013-01-19 09:40:00,31.4,22.8,30.14,South,182,6.0,18.0,70,0.00,,OVC110,0.00,130.00,VWS V14.01,2013-01-19 14:40:00,
2013-01-19 09:41:00,31.4,22.8,30.14,South,186,14.0,18.0,70,0.00,,OVC110,0.00,130.00,VWS V14.01,2013-01-19 14:41:00,
2013-01-19 09:43:00,31.4,22.8,30.15,West,270,9.0,18.0,70,0.00,,OVC110,0.00,128.00,VWS V14.01,2013-01-19 14:43:00,
2013-01-19 09:47:00,31.5,22.9,30.15,South,188,4.0,18.0,70,0.00,,OVC110,0.00,134.00,VWS V14.01,2013-01-19 14:47:00,
2013-01-19 09:48:00,31.6,22.6,30.14,WSW,256,0.0,18.0,69,0.00,,OVC110,0.00,137.00,VWS V14.01,2013-01-19 14:48:00,
2013-01-19 09:50:00,31.6,22.6,30.14,South,181,6.0,18.0,69,0.00,,OVC110,0.00,141.00,VWS V14.01,2013-01-19 14:50:00,
2013-01-19 09:53:00,31.7,23.0,30.14,SW,226,1.0,18.0,70,0.00,,OVC110,0.00,141.00,VWS V14.01,2013-01-19 14:53:00,
2013-01-19 09:55:00,31.8,23.1,30.14,SSW,205,8.0,18.0,70,0.00,,OVC110,0.00,144.00,VWS V14.01,2013-01-19 14:55:00,
2013-01-19 09:57:00,31.8,23.1,30.14,SW,221,7.0,18.0,70,0.00,,OVC110,0.00,146.00,VWS V14.01,2013-01-19 14:57:00,
2013-01-19 10:00:00,31.9,23.2,30.14,South,191,2.0,18.0,70,0.00,,OVC110,0.00,142.00,VWS V14.01,2013-01-19 15:00:00,
2013-01-19 10:04:00,32.0,23.3,30.14,SSW,201,11.0,18.0,70,0.00,,OVC110,0.00,149.00,VWS V14.01,2013-01-19 15:04:00,
2013-01-19 10:05:00,32.0,23.0,30.14,SSE,148,5.0,18.0,69,0.00,,OVC110,0.00,149.00,VWS V14.01,2013-01-19 15:05:00,
2013-01-19 10:07:00,32.1,23.1,30.14,SSW,213,5.0,9.0,69,0.00,,OVC110,0.00,153.00,VWS V14.01,2013-01-19 15:07:00,
2013-01-19 10:09:00,32.1,23.1,30.14,WSW,239,4.0,9.0,69,0.00,,OVC110,0.00,156.00,VWS V14.01,2013-01-19 15:09:00,
2013-01-19 10:12:00,32.2,23.2,30.14,SE,140,1.0,14.0,69,0.00,,OVC110,0.00,165.00,VWS V14.01,2013-01-19 15:12:00,
2013-01-19 10:14:00,32.3,23.3,30.13,South,174,5.0,14.0,69,0.00,,OVC110,0.00,171.00,VWS V14.01,2013-01-19 15:14:00,
2013-01-19 10:16:00,32.4,23.7,30.13,South,173,1.0,14.0,70,0.00,,OVC110,0.00,178.00,VWS V14.01,2013-01-19 15:16:00,
2013-01-19 10:19:00,32.5,23.5,30.14,South,189,4.0,14.0,69,0.00,,OVC110,0.00,183.00,VWS V14.01,2013-01-19 15:19:00,
2013-01-19 10:21:00,32.5,23.5,30.14,SW,221,7.0,14.0,69,0.00,,OVC110,0.00,192.00,VWS V14.01,2013-01-19 15:21:00,
2013-01-19 10:28:00,32.8,23.8,30.13,SW,230,6.0,14.0,69,0.00,,OVC110,0.00,200.00,VWS V14.01,2013-01-19 15:28:00,
2013-01-19 10:30:00,32.8,23.8,30.13,SSE,165,6.0,14.0,69,0.00,,OVC110,0.00,202.00,VWS V14.01,2013-01-19 15:30:00,
2013-01-19 10:31:00,32.9,23.9,30.13,SW,233,0.0,14.0,69,0.00,,OVC110,0.00,206.00,VWS V14.01,2013-01-19 15:31:00,
2013-01-19 10:35:00,33.1,24.0,30.13,SW,233,7.0,14.0,69,0.00,,OVC110,0.00,200.00,VWS V14.01,2013-01-19 15:35:00,
2013-01-19 10:37:00,33.2,24.1,30.12,ESE,121,2.0,14.0,69,0.00,,OVC110,0.00,188.00,VWS V14.01,2013-01-19 15:37:00,
2013-01-19 10:38:00,33.2,24.1,30.12,SSE,168,4.0,14.0,69,0.00,,OVC110,0.00,190.00,VWS V14.01,2013-01-19 15:38:00,
2013-01-19 10:42:00,33.4,24.0,30.12,WNW,288,0.0,14.0,68,0.00,,OVC110,0.00,186.00,VWS V14.01,2013-01-19 15:42:00,
2013-01-19 10:43:00,33.4,24.0,30.12,South,188,11.0,14.0,68,0.00,,OVC110,0.00,183.00,VWS V14.01,2013-01-19 15:43:00,
2013-01-19 10:47:00,33.5,24.4,30.12,SSW,207,3.0,14.0,69,0.00,,OVC110,0.00,199.00,VWS V14.01,2013-01-19 15:47:00,
2013-01-19 10:49:00,33.6,24.2,30.11,South,186,13.0,14.0,68,0.00,,OVC110,0.00,216.00,VWS V14.01,2013-01-19 15:49:00,
2013-01-19 10:50:00,33.7,24.3,30.11,SSW,192,8.0,16.0,68,0.00,,OVC110,0.00,206.00,VWS V14.01,2013-01-19 15:50:00,
2013-01-19 10:52:00,33.7,24.3,30.11,SW,234,3.0,16.0,68,0.00,,OVC110,0.00,204.00,VWS V14.01,2013-01-19 15:52:00,
2013-01-19 10:54:00,33.8,24.4,30.11,WSW,246,2.0,16.0,68,0.00,,OVC110,0.00,197.00,VWS V14.01,2013-01-19 15:54:00,
2013-01-19 10:57:00,33.9,24.5,30.11,SSW,192,5.0,16.0,68,0.00,,OVC110,0.00,188.00,VWS V14.01,2013-01-19 15:57:00,
2013-01-19 11:01:00,33.9,24.5,30.10,South,188,6.0,16.0,68,0.00,,OVC110,0.00,193.00,VWS V14.01,2013-01-19 16:01:00,
2013-01-19 11:02:00,34.0,24.6,30.10,SW,229,11.0,16.0,68,0.00,,OVC110,0.00,195.00,VWS V14.01,2013-01-19 16:02:00,
2013-01-19 11:07:00,34.1,24.7,30.10,SW,224,3.0,10.0,68,0.00,,OVC110,0.00,199.00,VWS V14.01,2013-01-19 16:07:00,
2013-01-19 11:09:00,34.1,24.7,30.09,WNW,284,2.0,13.0,68,0.00,,OVC110,0.00,200.00,VWS V14.01,2013-01-19 16:09:00,
2013-01-19 11:11:00,34.2,24.8,30.09,SSE,163,9.0,14.0,68,0.00,,OVC110,0.00,202.00,VWS V14.01,2013-01-19 16:11:00,
2013-01-19 11:14:00,34.3,24.9,30.09,SW,222,3.0,14.0,68,0.00,,OVC110,0.00,200.00,VWS V14.01,2013-01-19 16:14:00,
2013-01-19 11:16:00,34.4,25.0,30.09,SW,223,0.0,14.0,68,0.00,,OVC110,0.00,199.00,VWS V14.01,2013-01-19 16:16:00,
2013-01-19 11:18:00,34.4,24.6,30.08,South,180,2.0,14.0,67,0.00,,OVC110,0.00,193.00,VWS V14.01,2013-01-19 16:18:00,
2013-01-19 11:23:00,34.6,25.1,30.08,SW,223,3.0,14.0,68,0.00,,OVC110,0.00,195.00,VWS V14.01,2013-01-19 16:23:00,
2013-01-19 11:25:00,34.7,24.9,30.08,South,179,7.0,14.0,67,0.00,,OVC110,0.00,193.00,VWS V14.01,2013-01-19 16:25:00,
2013-01-19 11:26:00,34.7,24.9,30.08,SW,227,0.0,14.0,67,0.00,,OVC110,0.00,195.00,VWS V14.01,2013-01-19 16:26:00,
2013-01-19 11:30:00,34.8,25.0,30.08,SW,221,10.0,14.0,67,0.00,,OVC110,0.00,179.00,VWS V14.01,2013-01-19 16:30:00,
2013-01-19 11:33:00,34.9,25.1,30.07,WSW,242,7.0,14.0,67,0.00,,OVC110,0.00,185.00,VWS V14.01,2013-01-19 16:33:00,
2013-01-19 11:35:00,34.9,25.1,30.07,South,190,4.0,14.0,67,0.00,,OVC110,0.00,188.00,VWS V14.01,2013-01-19 16:35:00,
2013-01-19 11:38:00,35.0,25.2,30.07,WSW,238,6.0,14.0,67,0.00,,OVC110,0.00,209.00,VWS V14.01,2013-01-19 16:38:00,
2013-01-19 11:40:00,35.1,25.3,30.06,SSW,209,5.0,14.0,67,0.00,,OVC110,0.00,214.00,VWS V14.01,2013-01-19 16:40:00,
2013-01-19 11:42:00,35.1,24.9,30.06,SSE,158,10.0,14.0,66,0.00,,OVC110,0.00,221.00,VWS V14.01,2013-01-19 16:42:00,
2013-01-19 11:44:00,35.2,25.4,30.06,South,177,8.0,14.0,67,0.00,,OVC110,0.00,246.00,VWS V14.01,2013-01-19 16:44:00,
2013-01-19 11:47:00,35.3,25.5,30.06,SSE,154,14.0,14.0,67,0.00,,OVC110,0.00,221.00,VWS V14.01,2013-01-19 16:47:00,
2013-01-19 11:49:00,35.3,25.1,30.06,SSW,203,7.0,14.0,66,0.00,,OVC110,0.00,214.00,VWS V14.01,2013-01-19 16:49:00,
2013-01-19 11:51:00,35.4,25.5,30.06,South,186,8.0,14.0,67,0.00,,OVC110,0.00,211.00,VWS V14.01,2013-01-19 16:51:00,
2013-01-19 11:54:00,35.4,25.2,30.06,SE,142,2.0,14.0,66,0.00,,OVC110,0.00,186.00,VWS V14.01,2013-01-19 16:54:00,
2013-01-19 11:56:00,35.5,25.6,30.06,SSW,209,7.0,14.0,67,0.00,,OVC110,0.00,195.00,VWS V14.01,2013-01-19 16:56:00,
2013-01-19 11:57:00,35.5,25.3,30.05,South,169,14.0,14.0,66,0.00,,OVC110,0.00,206.00,VWS V14.01,2013-01-19 16:57:00,
2013-01-19 12:03:00,35.6,25.4,30.05,SW,223,3.0,15.0,66,0.00,,OVC110,0.00,185.00,VWS V14.01,2013-01-19 17:03:00,
2013-01-19 12:04:00,35.6,25.7,30.04,South,182,8.0,15.0,67,0.00,,OVC110,0.00,186.00,VWS V14.01,2013-01-19 17:04:00,
2013-01-19 12:05:00,35.6,25.4,30.04,SW,223,0.0,15.0,66,0.00,,OVC110,0.00,176.00,VWS V14.01,2013-01-19 17:05:00,
2013-01-19 12:08:00,35.7,25.5,30.04,South,174,14.0,14.0,66,0.00,,OVC110,0.00,171.00,VWS V14.01,2013-01-19 17:08:00,
2013-01-19 12:09:00,35.7,25.5,30.04,SSE,159,7.0,14.0,66,0.00,,OVC110,0.00,160.00,VWS V14.01,2013-01-19 17:09:00,
2013-01-19 12:15:00,35.7,25.5,30.04,SSW,202,5.0,14.0,66,0.00,,OVC110,0.00,137.00,VWS V14.01,2013-01-19 17:15:00,
2013-01-19 12:20:00,35.7,25.5,30.04,SSW,192,6.0,15.0,66,0.00,,CLR,0.00,116.00,VWS V14.01,2013-01-19 17:20:00,
2013-01-19 12:25:00,35.7,25.5,30.03,SSW,209,8.0,15.0,66,0.00,,CLR,0.00,142.00,VWS V14.01,2013-01-19 17:25:00,
2013-01-19 12:29:00,35.8,25.6,30.03,SSW,208,0.0,15.0,66,0.00,,CLR,0.00,148.00,VWS V14.01,2013-01-19 17:29:00,
2013-01-19 12:34:00,36.0,25.8,30.02,SSE,167,6.0,15.0,66,0.00,,CLR,0.00,165.00,VWS V14.01,2013-01-19 17:34:00,
2013-01-19 12:39:00,36.1,25.5,30.03,SSE,165,4.0,15.0,65,0.00,,CLR,0.00,162.00,VWS V14.01,2013-01-19 17:39:00,
2013-01-19 12:41:00,36.2,25.6,30.03,South,179,11.0,15.0,65,0.00,,CLR,0.00,134.00,VWS V14.01,2013-01-19 17:41:00,
2013-01-19 12:48:00,36.5,26.2,30.02,SSE,163,8.0,18.0,66,0.00,,CLR,0.00,153.00,VWS V14.01,2013-01-19 17:48:00,
2013-01-19 12:53:00,37.0,26.3,30.02,SSE,150,3.0,18.0,65,0.00,,CLR,0.00,441.00,VWS V14.01,2013-01-19 17:53:00,
2013-01-19 12:58:00,37.7,26.6,30.02,SSW,212,5.0,18.0,64,0.00,,CLR,0.00,415.00,VWS V14.01,2013-01-19 17:58:00,
2013-01-19 13:00:00,37.9,26.5,30.02,SW,214,6.0,18.0,63,0.00,,CLR,0.00,403.00,VWS V14.01,2013-01-19 18:00:00,
2013-01-19 13:05:00,38.6,27.1,30.01,SSW,196,5.0,18.0,63,0.00,,CLR,0.00,381.00,VWS V14.01,2013-01-19 18:05:00,
2013-01-19 13:10:00,38.9,27.0,30.01,SSW,207,1.0,14.0,62,0.00,,CLR,0.00,385.00,VWS V14.01,2013-01-19 18:10:00,
2013-01-19 13:12:00,39.0,26.7,30.01,SSE,168,4.0,14.0,61,0.00,,CLR,0.00,390.00,VWS V14.01,2013-01-19 18:12:00,
2013-01-19 13:17:00,39.3,27.0,30.01,SSE,164,6.0,14.0,61,0.00,,CLR,0.00,330.00,VWS V14.01,2013-01-19 18:17:00,
2013-01-19 13:22:00,39.4,27.1,30.00,SSW,201,18.0,18.0,61,0.00,,CLR,0.00,276.00,VWS V14.01,2013-01-19 18:22:00,
2013-01-19 13:24:00,39.4,26.7,30.01,South,190,1.0,18.0,60,0.00,,CLR,0.00,313.00,VWS V14.01,2013-01-19 18:24:00,
2013-01-19 13:33:00,39.9,27.2,30.00,SSE,166,2.0,18.0,60,0.00,,CLR,0.00,336.00,VWS V14.01,2013-01-19 18:33:00,
2013-01-19 13:35:00,40.0,27.2,30.00,SW,229,6.0,18.0,60,0.00,,CLR,0.00,330.00,VWS V14.01,2013-01-19 18:35:00,
2013-01-19 13:38:00,40.2,27.4,30.00,SSW,202,8.0,18.0,60,0.00,,CLR,0.00,325.00,VWS V14.01,2013-01-19 18:38:00,
2013-01-19 13:42:00,40.4,27.2,30.00,East,90,4.0,18.0,59,0.00,,CLR,0.00,320.00,VWS V14.01,2013-01-19 18:42:00,
2013-01-19 13:43:00,40.5,27.3,30.00,SW,230,3.0,18.0,59,0.00,,CLR,0.00,316.00,VWS V14.01,2013-01-19 18:43:00,
2013-01-19 13:47:00,40.6,27.0,30.00,South,188,8.0,18.0,58,0.00,,CLR,0.00,306.00,VWS V14.01,2013-01-19 18:47:00,
2013-01-19 13:50:00,40.7,27.5,29.99,SW,236,4.0,18.0,59,0.00,,CLR,0.00,302.00,VWS V14.01,2013-01-19 18:50:00,
2013-01-19 13:54:00,40.8,27.2,29.99,SSW,200,5.0,18.0,58,0.00,,CLR,0.00,297.00,VWS V14.01,2013-01-19 18:54:00,
2013-01-19 13:57:00,40.9,27.3,29.99,South,190,10.0,18.0,58,0.00,,CLR,0.00,290.00,VWS V14.01,2013-01-19 18:57:00,
2013-01-19 14:02:00,40.9,27.3,29.99,SSW,192,5.0,18.0,58,0.00,,CLR,0.00,274.00,VWS V14.01,2013-01-19 19:02:00,
2013-01-19 14:04:00,40.9,27.3,29.99,SSW,194,2.0,18.0,58,0.00,,CLR,0.00,271.00,VWS V14.01,2013-01-19 19:04:00,
2013-01-19 14:08:00,41.0,27.4,29.99,SSE,158,14.0,16.0,58,0.00,,CLR,0.00,271.00,VWS V14.01,2013-01-19 19:08:00,
2013-01-19 14:09:00,41.0,27.4,29.99,SW,214,7.0,16.0,58,0.00,,CLR,0.00,265.00,VWS V14.01,2013-01-19 19:09:00,
2013-01-19 14:13:00,41.1,27.0,29.99,SW,225,13.0,19.0,57,0.00,,CLR,0.00,253.00,VWS V14.01,2013-01-19 19:13:00,
2013-01-19 14:14:00,41.2,27.1,29.99,South,189,13.0,19.0,57,0.00,,CLR,0.00,255.00,VWS V14.01,2013-01-19 19:14:00,
2013-01-19 14:19:00,41.2,27.1,29.99,South,189,4.0,19.0,57,0.00,,CLR,0.00,246.00,VWS V14.01,2013-01-19 19:19:00,
2013-01-19 14:21:00,41.3,27.2,29.99,SSE,166,1.0,19.0,57,0.00,,CLR,0.00,246.00,VWS V14.01,2013-01-19 19:21:00,
2013-01-19 14:26:00,41.4,27.3,29.98,SW,228,6.0,19.0,57,0.00,,CLR,0.00,229.00,VWS V14.01,2013-01-19 19:26:00,
2013-01-19 14:28:00,41.4,27.3,29.98,SSE,161,13.0,19.0,57,0.00,,CLR,0.00,223.00,VWS V14.01,2013-01-19 19:28:00,
2013-01-19 14:31:00,41.3,26.8,29.98,South,177,9.0,20.0,56,0.00,,CLR,0.00,218.00,VWS V14.01,2013-01-19 19:31:00,
2013-01-19 14:37:00,41.5,27.4,29.98,SSW,202,9.0,20.0,57,0.00,,CLR,0.00,204.00,VWS V14.01,2013-01-19 19:37:00,
2013-01-19 14:42:00,41.5,27.4,29.98,South,186,8.0,20.0,57,0.00,,CLR,0.00,199.00,VWS V14.01,2013-01-19 19:42:00,
2013-01-19 14:44:00,41.5,27.4,29.98,SSW,198,9.0,20.0,57,0.00,,CLR,0.00,190.00,VWS V14.01,2013-01-19 19:44:00,
2013-01-19 14:49:00,41.5,27.4,29.98,SSW,209,9.0,20.0,57,0.00,,CLR,0.00,135.00,VWS V14.01,2013-01-19 19:49:00,
2013-01-19 14:54:00,41.4,27.3,29.98,SSW,202,5.0,20.0,57,0.00,,CLR,0.00,128.00,VWS V14.01,2013-01-19 19:54:00,
2013-01-19 15:03:00,41.3,27.6,29.98,SSW,198,6.0,20.0,58,0.00,,CLR,0.00,104.00,VWS V14.01,2013-01-19 20:03:00,
2013-01-19 15:05:00,41.3,27.6,29.98,SSE,167,1.0,20.0,58,0.00,,CLR,0.00,105.00,VWS V14.01,2013-01-19 20:05:00,
2013-01-19 15:08:00,41.2,27.6,29.98,SSE,148,4.0,12.0,58,0.00,,CLR,0.00,76.00,VWS V14.01,2013-01-19 20:08:00,
2013-01-19 15:11:00,41.1,27.9,29.99,SSE,163,6.0,12.0,59,0.00,,CLR,0.00,79.00,VWS V14.01,2013-01-19 20:11:00,
2013-01-19 15:15:00,41.0,27.8,29.98,SSE,155,3.0,12.0,59,0.00,,CLR,0.00,70.00,VWS V14.01,2013-01-19 20:15:00,
2013-01-19 15:18:00,40.8,27.2,29.98,South,186,3.0,13.0,58,0.00,,CLR,0.00,62.00,VWS V14.01,2013-01-19 20:18:00,
2013-01-19 15:22:00,40.7,27.5,29.98,SW,215,5.0,15.0,59,0.00,,CLR,0.00,54.00,VWS V14.01,2013-01-19 20:22:00,
2013-01-19 15:25:00,40.6,27.0,29.98,SSW,205,4.0,15.0,58,0.00,,CLR,0.00,77.00,VWS V14.01,2013-01-19 20:25:00,
2013-01-19 15:30:00,40.8,27.6,29.98,SSE,157,0.0,15.0,59,0.00,,CLR,0.00,77.00,VWS V14.01,2013-01-19 20:30:00,
2013-01-19 15:32:00,40.9,27.7,29.98,SSW,213,5.0,15.0,59,0.00,,CLR,0.00,74.00,VWS V14.01,2013-01-19 20:32:00,
2013-01-19 15:35:00,41.0,27.8,29.98,South,190,5.0,15.0,59,0.00,,CLR,0.00,65.00,VWS V14.01,2013-01-19 20:35:00,
2013-01-19 15:37:00,41.1,27.9,29.98,SW,215,6.0,15.0,59,0.00,,CLR,0.00,60.00,VWS V14.01,2013-01-19 20:37:00,
2013-01-19 15:42:00,41.1,27.9,29.98,South,173,3.0,15.0,59,0.00,,CLR,0.00,49.00,VWS V14.01,2013-01-19 20:42:00,
2013-01-19 15:44:00,41.1,27.9,29.98,SE,128,0.0,15.0,59,0.00,,CLR,0.00,49.00,VWS V14.01,2013-01-19 20:44:00,
2013-01-19 15:49:00,41.1,27.9,29.98,SSE,167,1.0,15.0,59,0.00,,CLR,0.00,54.00,VWS V14.01,2013-01-19 20:49:00,
2013-01-19 15:56:00,40.9,28.1,29.97,SSW,198,13.0,15.0,60,0.00,,CLR,0.00,46.00,VWS V14.01,2013-01-19 20:56:00,
2013-01-19 16:02:00,40.8,28.0,29.98,SSE,163,0.0,15.0,60,0.00,,CLR,0.00,42.00,VWS V14.01,2013-01-19 21:02:00,
2013-01-19 16:04:00,40.7,27.9,29.98,SSW,202,8.0,15.0,60,0.00,,CLR,0.00,40.00,VWS V14.01,2013-01-19 21:04:00,
2013-01-19 16:11:00,40.4,28.0,29.98,SSW,213,8.0,12.0,61,0.00,,CLR,0.00,35.00,VWS V14.01,2013-01-19 21:11:00,
2013-01-19 16:17:00,40.3,27.9,29.98,SW,227,7.0,12.0,61,0.00,,CLR,0.00,30.00,VWS V14.01,2013-01-19 21:17:00,
2013-01-19 16:22:00,40.2,27.8,29.97,SSW,212,0.0,12.0,61,0.00,,CLR,0.00,25.00,VWS V14.01,2013-01-19 21:22:00,
2013-01-19 16:25:00,40.1,28.1,29.97,SW,224,0.0,12.0,62,0.00,,CLR,0.00,19.00,VWS V14.01,2013-01-19 21:25:00,
2013-01-19 16:29:00,39.9,27.6,29.97,SSE,148,4.0,12.0,61,0.00,,CLR,0.00,18.00,VWS V14.01,2013-01-19 21:29:00,
2013-01-19 16:34:00,39.7,27.8,29.97,SSE,161,4.0,12.0,62,0.00,,CLR,0.00,14.00,VWS V14.01,2013-01-19 21:34:00,
2013-01-19 16:39:00,39.5,28.0,29.97,SSW,194,3.0,12.0,63,0.00,,CLR,0.00,11.00,VWS V14.01,2013-01-19 21:39:00,
2013-01-19 16:44:00,39.3,27.8,29.97,South,180,4.0,12.0,63,0.00,,CLR,0.00,7.00,VWS V14.01,2013-01-19 21:44:00,
2013-01-19 16:51:00,39.2,27.7,29.97,SSW,209,2.0,12.0,63,0.00,,CLR,0.00,0.00,VWS V14.01,2013-01-19 21:51:00,
2013-01-19 16:58:00,39.0,27.5,29.97,South,188,0.0,12.0,63,0.00,,CLR,0.00,0.00,VWS V14.01,2013-01-19 21:58:00,
2013-01-19 17:02:00,39.0,27.5,29.97,South,171,5.0,12.0,63,0.00,,CLR,0.00,0.00,VWS V14.01,2013-01-19 22:02:00,
2013-01-19 17:04:00,38.9,27.8,29.97,SSW,192,0.0,12.0,64,0.00,,CLR,0.00,0.00,VWS V14.01,2013-01-19 22:04:00,
2013-01-19 17:09:00,38.8,27.7,29.97,SSW,209,2.0,11.0,64,0.00,,CLR,0.00,0.00,VWS V14.01,2013-01-19 22:09:00,
2013-01-19 17:11:00,38.8,27.7,29.97,SSE,158,0.0,11.0,64,0.00,,CLR,0.00,0.00,VWS V14.01,2013-01-19 22:11:00,
2013-01-19 17:14:00,38.8,27.7,29.97,SSE,162,2.0,11.0,64,0.00,,CLR,0.00,0.00,VWS V14.01,2013-01-19 22:14:00,
2013-01-19 17:18:00,38.6,27.5,29.97,South,188,2.0,11.0,64,0.00,,CLR,0.00,0.00,VWS V14.01,2013-01-19 22:18:00,
2013-01-19 17:20:00,38.6,27.5,29.97,South,175,1.0,11.0,64,0.00,,CLR,0.00,0.00,VWS V14.01,2013-01-19 22:20:00,
2013-01-19 17:23:00,38.4,27.3,29.97,SE,142,2.0,11.0,64,0.00,,CLR,0.00,0.00,VWS V14.01,2013-01-19 22:23:00,
2013-01-19 17:25:00,38.4,27.3,29.97,South,186,1.0,11.0,64,0.00,,CLR,0.00,0.00,VWS V14.01,2013-01-19 22:25:00,
2013-01-19 17:28:00,38.3,27.6,29.97,SW,235,0.0,11.0,65,0.00,,CLR,0.00,0.00,VWS V14.01,2013-01-19 22:28:00,
2013-01-19 17:30:00,38.3,27.6,29.97,SSW,207,5.0,11.0,65,0.00,,CLR,0.00,0.00,VWS V14.01,2013-01-19 22:30:00,
2013-01-19 17:35:00,38.3,27.6,29.97,SSE,163,5.0,11.0,65,0.00,,CLR,0.00,0.00,VWS V14.01,2013-01-19 22:35:00,
2013-01-19 17:37:00,38.2,27.5,29.97,WSW,242,1.0,11.0,65,0.00,,CLR,0.00,0.00,VWS V14.01,2013-01-19 22:37:00,
2013-01-19 17:41:00,38.2,27.5,29.97,SSW,203,0.0,11.0,65,0.00,,CLR,0.00,0.00,VWS V14.01,2013-01-19 22:41:00,
2013-01-19 17:42:00,38.2,27.5,29.97,SW,232,2.0,11.0,65,0.00,,CLR,0.00,0.00,VWS V14.01,2013-01-19 22:42:00,
2013-01-19 17:47:00,38.1,27.8,29.97,SW,222,1.0,11.0,66,0.00,,CLR,0.00,0.00,VWS V14.01,2013-01-19 22:47:00,
2013-01-19 17:53:00,38.0,27.7,29.97,WSW,247,0.0,11.0,66,0.00,,CLR,0.00,0.00,VWS V14.01,2013-01-19 22:53:00,
2013-01-19 17:58:00,38.0,27.7,29.97,South,178,4.0,11.0,66,0.00,,CLR,0.00,0.00,VWS V14.01,2013-01-19 22:58:00,
2013-01-19 18:00:00,38.0,27.7,29.97,SSW,207,3.0,11.0,66,0.00,,CLR,0.00,0.00,VWS V14.01,2013-01-19 23:00:00,
2013-01-19 18:05:00,38.0,27.7,29.97,SSW,207,5.0,11.0,66,0.00,,CLR,0.00,0.00,VWS V14.01,2013-01-19 23:05:00,
2013-01-19 18:10:00,38.0,27.7,29.97,SSW,193,7.0,7.0,66,0.00,,CLR,0.00,0.00,VWS V14.01,2013-01-19 23:10:00,
2013-01-19 18:12:00,38.0,27.7,29.97,SW,231,7.0,7.0,66,0.00,,CLR,0.00,0.00,VWS V14.01,2013-01-19 23:12:00,
2013-01-19 18:15:00,38.0,27.7,29.96,SE,135,7.0,10.0,66,0.00,,CLR,0.00,0.00,VWS V14.01,2013-01-19 23:15:00,
2013-01-19 18:17:00,38.1,27.8,29.96,WSW,237,1.0,10.0,66,0.00,,CLR,0.00,0.00,VWS V14.01,2013-01-19 23:17:00,
2013-01-19 18:22:00,38.1,27.4,29.96,South,176,5.0,10.0,65,0.00,,CLR,0.00,0.00,VWS V14.01,2013-01-19 23:22:00,
2013-01-19 18:26:00,38.2,27.5,29.96,South,171,1.0,10.0,65,0.00,,CLR,0.00,0.00,VWS V14.01,2013-01-19 23:26:00,
2013-01-19 18:28:00,38.2,27.5,29.96,South,177,0.0,10.0,65,0.00,,CLR,0.00,0.00,VWS V14.01,2013-01-19 23:28:00,
2013-01-19 18:31:00,38.3,27.6,29.96,SE,140,1.0,10.0,65,0.00,,CLR,0.00,0.00,VWS V14.01,2013-01-19 23:31:00,
2013-01-19 18:33:00,38.3,27.6,29.96,South,185,0.0,10.0,65,0.00,,CLR,0.00,0.00,VWS V14.01,2013-01-19 23:33:00,
2013-01-19 18:40:00,38.4,27.7,29.96,South,180,2.0,13.0,65,0.00,,CLR,0.00,0.00,VWS V14.01,2013-01-19 23:40:00,
2013-01-19 18:45:00,38.3,27.6,29.96,SW,234,2.0,13.0,65,0.00,,CLR,0.00,0.00,VWS V14.01,2013-01-19 23:45:00,
2013-01-19 18:50:00,38.3,27.6,29.96,SSE,166,1.0,13.0,65,0.00,,CLR,0.00,0.00,VWS V14.01,2013-01-19 23:50:00,
2013-01-19 18:52:00,38.3,27.6,29.96,SW,226,2.0,13.0,65,0.00,,CLR,0.00,0.00,VWS V14.01,2013-01-19 23:52:00,
2013-01-19 18:59:00,38.2,27.5,29.96,SSW,212,0.0,13.0,65,0.00,,CLR,0.00,0.00,VWS V14.01,2013-01-19 23:59:00,
2013-01-19 19:03:00,38.1,27.4,29.96,SSW,211,3.0,13.0,65,0.00,,CLR,0.00,0.00,VWS V14.01,2013-01-20 00:03:00,
2013-01-19 19:06:00,38.2,27.1,29.96,South,190,3.0,10.0,64,0.00,,CLR,0.00,0.00,VWS V14.01,2013-01-20 00:06:00,
2013-01-19 19:08:00,38.2,27.5,29.96,South,173,2.0,10.0,65,0.00,,CLR,0.00,0.00,VWS V14.01,2013-01-20 00:08:00,
2013-01-19 19:15:00,38.2,27.1,29.96,SSW,198,5.0,10.0,64,0.00,,CLR,0.00,0.00,VWS V14.01,2013-01-20 00:15:00,
2013-01-19 19:19:00,38.2,27.1,29.96,SSW,192,3.0,10.0,64,0.00,,CLR,0.00,0.00,VWS V14.01,2013-01-20 00:19:00,
2013-01-19 19:22:00,38.2,27.1,29.96,SSE,167,0.0,10.0,64,0.00,,CLR,0.00,0.00,VWS V14.01,2013-01-20 00:22:00,
2013-01-19 19:27:00,38.1,27.0,29.95,NW,307,0.0,10.0,64,0.00,,CLR,0.00,0.00,VWS V14.01,2013-01-20 00:27:00,
2013-01-19 19:33:00,38.1,27.0,29.96,West,280,0.0,10.0,64,0.00,,CLR,0.00,0.00,VWS V14.01,2013-01-20 00:33:00,
2013-01-19 19:39:00,38.1,27.0,29.96,SW,214,0.0,10.0,64,0.00,,CLR,0.00,0.00,VWS V14.01,2013-01-20 00:39:00,
2013-01-19 19:42:00,38.0,26.9,29.96,SSW,192,0.0,10.0,64,0.00,,CLR,0.00,0.00,VWS V14.01,2013-01-20 00:42:00,
2013-01-19 19:44:00,38.0,26.9,29.96,South,178,0.0,10.0,64,0.00,,CLR,0.00,0.00,VWS V14.01,2013-01-20 00:44:00,
2013-01-19 19:47:00,38.0,26.9,29.96,SSW,205,0.0,10.0,64,0.00,,CLR,0.00,0.00,VWS V14.01,2013-01-20 00:47:00,
2013-01-19 19:53:00,38.0,26.9,29.95,SW,228,0.0,10.0,64,0.00,,CLR,0.00,0.00,VWS V14.01,2013-01-20 00:53:00,
2013-01-19 19:54:00,38.0,26.9,29.95,SW,227,0.0,10.0,64,0.00,,CLR,0.00,0.00,VWS V14.01,2013-01-20 00:54:00,
2013-01-19 19:59:00,38.0,26.9,29.95,ESE,117,0.0,10.0,64,0.00,,CLR,0.00,0.00,VWS V14.01,2013-01-20 00:59:00,
2013-01-19 20:01:00,38.0,26.9,29.95,SSW,205,0.0,10.0,64,0.00,,CLR,0.00,0.00,VWS V14.01,2013-01-20 01:01:00,
2013-01-19 20:06:00,37.9,26.8,29.95,SSW,207,0.0,3.0,64,0.00,,CLR,0.00,0.00,VWS V14.01,2013-01-20 01:06:00,
2013-01-19 20:12:00,38.1,27.0,29.95,SSW,205,0.0,5.0,64,0.00,,CLR,0.00,0.00,VWS V14.01,2013-01-20 01:12:00,
2013-01-19 20:17:00,38.2,27.1,29.95,SW,225,0.0,5.0,64,0.00,,CLR,0.00,0.00,VWS V14.01,2013-01-20 01:17:00,
2013-01-19 20:22:00,38.2,27.1,29.94,WSW,247,0.0,5.0,64,0.00,,CLR,0.00,0.00,VWS V14.01,2013-01-20 01:22:00,
2013-01-19 20:27:00,38.2,27.1,29.94,WSW,247,0.0,5.0,64,0.00,,CLR,0.00,0.00,VWS V14.01,2013-01-20 01:27:00,
2013-01-19 20:33:00,38.1,27.0,29.94,SW,229,0.0,5.0,64,0.00,,CLR,0.00,0.00,VWS V14.01,2013-01-20 01:33:00,
2013-01-19 20:34:00,38.1,27.0,29.94,SSW,209,0.0,5.0,64,0.00,,CLR,0.00,0.00,VWS V14.01,2013-01-20 01:34:00,
2013-01-19 20:40:00,38.0,27.3,29.94,SSE,167,0.0,5.0,65,0.00,,CLR,0.00,0.00,VWS V14.01,2013-01-20 01:40:00,
2013-01-19 20:43:00,37.8,27.1,29.93,SSE,167,0.0,5.0,65,0.00,,CLR,0.00,0.00,VWS V14.01,2013-01-20 01:43:00,
2013-01-19 20:48:00,37.7,27.0,29.93,WSW,248,0.0,5.0,65,0.00,,CLR,0.00,0.00,VWS V14.01,2013-01-20 01:48:00,
2013-01-19 20:52:00,37.5,26.8,29.93,South,175,0.0,5.0,65,0.00,,CLR,0.00,0.00,VWS V14.01,2013-01-20 01:52:00,
2013-01-19 20:57:00,37.5,26.8,29.93,WSW,246,0.0,5.0,65,0.00,,CLR,0.00,0.00,VWS V14.01,2013-01-20 01:57:00,
2013-01-19 20:59:00,37.6,26.9,29.93,South,178,0.0,5.0,65,0.00,,CLR,0.00,0.00,VWS V14.01,2013-01-20 01:59:00,
2013-01-19 21:02:00,37.5,26.8,29.92,SW,236,0.0,5.0,65,0.00,,CLR,0.00,0.00,VWS V14.01,2013-01-20 02:02:00,
2013-01-19 21:04:00,37.5,26.8,29.92,SW,223,7.0,7.0,65,0.00,,CLR,0.00,0.00,VWS V14.01,2013-01-20 02:04:00,
2013-01-19 21:09:00,37.5,27.2,29.92,SW,225,0.0,1.0,66,0.00,,CLR,0.00,0.00,VWS V14.01,2013-01-20 02:09:00,
2013-01-19 21:15:00,37.4,27.1,29.92,SW,218,0.0,2.0,66,0.00,,CLR,0.00,0.00,VWS V14.01,2013-01-20 02:15:00,
2013-01-19 21:18:00,37.3,27.0,29.92,SW,218,0.0,2.0,66,0.00,,CLR,0.00,0.00,VWS V14.01,2013-01-20 02:18:00,
2013-01-19 21:24:00,37.2,26.9,29.91,SSW,213,0.0,2.0,66,0.00,,CLR,0.00,0.00,VWS V14.01,2013-01-20 02:24:00,
2013-01-19 21:27:00,37.2,27.3,29.91,South,182,4.0,4.0,67,0.00,,CLR,0.00,0.00,VWS V14.01,2013-01-20 02:27:00,
2013-01-19 21:32:00,37.2,27.6,29.91,South,180,0.0,4.0,68,0.00,,CLR,0.00,0.00,VWS V14.01,2013-01-20 02:32:00,
2013-01-19 21:34:00,37.2,27.6,29.91,SSE,161,5.0,5.0,68,0.00,,CLR,0.00,0.00,VWS V14.01,2013-01-20 02:34:00,
2013-01-19 21:37:00,37.3,28.1,29.91,South,178,0.0,6.0,69,0.00,,CLR,0.00,0.00,VWS V14.01,2013-01-20 02:37:00,
2013-01-19 21:39:00,37.2,28.0,29.91,South,178,0.0,6.0,69,0.00,,CLR,0.00,0.00,VWS V14.01,2013-01-20 02:39:00,
2013-01-19 21:45:00,37.2,28.0,29.90,South,172,0.0,6.0,69,0.00,,CLR,0.00,0.00,VWS V14.01,2013-01-20 02:45:00,
2013-01-19 21:48:00,37.2,28.0,29.90,SSE,165,0.0,6.0,69,0.00,,CLR,0.00,0.00,VWS V14.01,2013-01-20 02:48:00,
2013-01-19 21:50:00,37.1,27.9,29.90,SSE,165,0.0,6.0,69,0.00,,CLR,0.00,0.00,VWS V14.01,2013-01-20 02:50:00,
2013-01-19 21:55:00,37.0,27.8,29.90,South,183,0.0,6.0,69,0.00,,CLR,0.00,0.00,VWS V14.01,2013-01-20 02:55:00,
2013-01-19 21:57:00,37.0,27.8,29.90,South,183,0.0,6.0,69,0.00,,CLR,0.00,0.00,VWS V14.01,2013-01-20 02:57:00,
2013-01-19 22:02:00,37.0,27.8,29.89,South,183,0.0,6.0,69,0.00,,CLR,0.00,0.00,VWS V14.01,2013-01-20 03:02:00,
2013-01-19 22:05:00,36.9,28.0,29.89,South,178,0.0,6.0,70,0.00,,CLR,0.00,0.00,VWS V14.01,2013-01-20 03:05:00,
2013-01-19 22:12:00,36.8,28.0,29.89,South,181,0.0,2.0,70,0.00,,CLR,0.00,0.00,VWS V14.01,2013-01-20 03:12:00,
2013-01-19 22:14:00,36.8,28.0,29.89,SE,126,1.0,2.0,70,0.00,,CLR,0.00,0.00,VWS V14.01,2013-01-20 03:14:00,
2013-01-19 22:18:00,37.0,28.1,29.89,ESE,123,0.0,3.0,70,0.00,,CLR,0.00,0.00,VWS V14.01,2013-01-20 03:18:00,
2013-01-19 22:21:00,37.1,27.9,29.88,SSW,200,0.0,3.0,69,0.00,,CLR,0.00,0.00,VWS V14.01,2013-01-20 03:21:00,
2013-01-19 22:24:00,37.2,28.3,29.88,SSW,192,0.0,3.0,70,0.00,,CLR,0.00,0.00,VWS V14.01,2013-01-20 03:24:00,
2013-01-19 22:28:00,37.2,28.3,29.88,SE,144,0.0,3.0,70,0.00,,CLR,0.00,0.00,VWS V14.01,2013-01-20 03:28:00,
2013-01-19 22:30:00,37.3,28.4,29.88,SE,144,0.0,3.0,70,0.00,,CLR,0.00,0.00,VWS V14.01,2013-01-20 03:30:00,
2013-01-19 22:33:00,37.3,28.8,29.88,SE,144,0.0,3.0,71,0.00,,CLR,0.00,0.00,VWS V14.01,2013-01-20 03:33:00,
2013-01-19 22:37:00,37.3,28.8,29.87,SSE,151,0.0,3.0,71,0.00,,CLR,0.00,0.00,VWS V14.01,2013-01-20 03:37:00,
2013-01-19 22:40:00,37.4,28.9,29.87,SE,131,1.0,3.0,71,0.00,,CLR,0.00,0.00,VWS V14.01,2013-01-20 03:40:00,
2013-01-19 22:45:00,37.5,29.3,29.87,SE,134,0.0,4.0,72,0.00,,CLR,0.00,0.00,VWS V14.01,2013-01-20 03:45:00,
2013-01-19 22:47:00,37.6,29.4,29.86,SE,143,0.0,4.0,72,0.00,,CLR,0.00,0.00,VWS V14.01,2013-01-20 03:47:00,
2013-01-19 22:51:00,37.7,29.5,29.86,ESE,120,0.0,4.0,72,0.00,,CLR,0.00,0.00,VWS V14.01,2013-01-20 03:51:00,
2013-01-19 22:52:00,37.7,29.8,29.86,ESE,120,0.0,4.0,73,0.00,,CLR,0.00,0.00,VWS V14.01,2013-01-20 03:52:00,
2013-01-19 22:59:00,38.0,30.1,29.86,SSE,150,0.0,9.0,73,0.00,,CLR,0.00,0.00,VWS V14.01,2013-01-20 03:59:00,
2013-01-19 23:03:00,38.2,30.3,29.85,South,170,0.0,9.0,73,0.00,,CLR,0.00,0.00,VWS V14.01,2013-01-20 04:03:00,
2013-01-19 23:04:00,38.3,30.4,29.85,South,183,0.0,9.0,73,0.00,,CLR,0.00,0.00,VWS V14.01,2013-01-20 04:04:00,
2013-01-19 23:10:00,38.5,31.0,29.85,SSW,192,0.0,8.0,74,0.00,,CLR,0.00,0.00,VWS V14.01,2013-01-20 04:10:00,
2013-01-19 23:15:00,38.7,30.8,29.85,South,178,0.0,8.0,73,0.00,,CLR,0.00,0.00,VWS V14.01,2013-01-20 04:15:00,
2013-01-19 23:17:00,38.8,30.9,29.85,South,188,4.0,8.0,73,0.00,,CLR,0.00,0.00,VWS V14.01,2013-01-20 04:17:00,
2013-01-19 23:23:00,39.1,31.2,29.84,ESE,113,2.0,8.0,73,0.00,,CLR,0.00,0.00,VWS V14.01,2013-01-20 04:23:00,
2013-01-19 23:25:00,39.1,31.2,29.84,South,171,0.0,8.0,73,0.00,,CLR,0.00,0.00,VWS V14.01,2013-01-20 04:25:00,
2013-01-19 23:29:00,39.2,31.3,29.84,SSE,154,1.0,8.0,73,0.00,,CLR,0.00,0.00,VWS V14.01,2013-01-20 04:29:00,
2013-01-19 23:30:00,39.2,31.3,29.84,SSW,198,0.0,8.0,73,0.00,,CLR,0.00,0.00,VWS V14.01,2013-01-20 04:30:00,
2013-01-19 23:36:00,39.3,31.4,29.84,SSW,207,0.0,8.0,73,0.00,,CLR,0.00,0.00,VWS V14.01,2013-01-20 04:36:00,
2013-01-19 23:43:00,39.2,31.3,29.84,South,190,1.0,8.0,73,0.00,,CLR,0.00,0.00,VWS V14.01,2013-01-20 04:43:00,
2013-01-19 23:48:00,39.2,31.3,29.83,WSW,249,0.0,8.0,73,0.00,,CLR,0.00,0.00,VWS V14.01,2013-01-20 04:48:00,
2013-01-19 23:49:00,39.2,31.3,29.83,South,190,0.0,8.0,73,0.00,,CLR,0.00,0.00,VWS V14.01,2013-01-20 04:49:00,
2013-01-19 23:55:00,39.3,31.4,29.83,SW,217,1.0,10.0,73,0.00,,CLR,0.00,0.00,VWS V14.01,2013-01-20 04:55:00,